Location: Home
(42.5358°N, 72.7383°W)
Time: 21:26:11
(UTC-05:00)

Vanguard 2 Rocket - Pass Details

Date: 02 December 2021
Orbit: 554 x 3325 km, 32.9° (Epoch: 21 January)

Event Time Altitude Azimuth Distance (km) Brightness Sun altitude
Rises 20:57:42 0° 262° (W) 4,150 10.8 -50.5°
Reaches altitude 10° 21:00:08 10° 257° (WSW) 3,464 10.2 -50.9°
Enters shadow 21:03:04 25° 246° (WSW) 2,789 9.5 -51.4°
Maximum altitude 21:09:01 50° 185° (S) 2,426 - -52.5°
Drops below altitude 10° 21:24:07 10° 117° (ESE) 5,706 - -55.0°
Sets 21:29:26 0° 113° (ESE) 7,011 - -55.9°
